Durango, Mexico

5:51 PM CST on March 30, 2017 (GMT -0600)
Durango

Weather History for MMDO - April, 2013

Change the Weather History Date:

Friday, April 5, 2013

  Actual Average Record
Temperature  
Mean Temperature 68 °F -  
Max Temperature 91 °F 82 °F 91 °F (2006)
Min Temperature 45 °F 47 °F 35 °F (1997)
Cooling Degree Days 3    
Growing Degree Days 18 (Base 50)    
Moisture  
Dew Point 25 °F    
Average Humidity 19    
Maximum Humidity 49    
Minimum Humidity 7    
Precipitation  
Precipitation 0.00 in - - ()
Sea Level Pressure  
Sea Level Pressure 30.00 in    
Wind  
Wind Speed 4 mph ()    
Max Wind Speed 21 mph    
Max Gust Speed -    
Visibility 12.4 miles    
Events      
Averages and records for this station are not official NWS values.
T = Trace of Precipitation, MM = Missing Value Source: Averaged Metar Reports

Daily Weather History Graph

Daily Weather History Graph

Search for Another Location

Airport or City:

Trip Planner

Search our weather history database for the weather conditions in past years. The results will help you decide how hot, cold, wet, or windy it might be!

Date:

Astronomy

Apr. 05, 2013 Rise Set
Actual Time 6:45 AM CST 7:15 PM CST
Civil Twilight 6:22 AM CST 7:38 PM CST
Nautical Twilight 5:56 AM CST 8:05 PM CST
Astronomical Twilight 5:29 AM CST 8:32 PM CST
Moon 3:24 AM CST (4/5) 3:09 PM CST (4/5)
Length of Visible Light 13h 15m
Length of Day
12h 30m
Waning Crescent, 23% of the Moon is Illuminated
Apr 5
Waning Crescent
Apr 10
New
Apr 18
First Quarter
Apr 25
Full
May 2
Last Quarter

Hourly Weather History & Observations

Time (CST) Temp. Dew Point Humidity Pressure Visibility Wind Dir Wind Speed Gust Speed Precip Events Conditions
2:50 AM 58 °F 27 °F 19% 29.87 in 6 mi NE 2.2 mph - -  
5:45 AM 49 °F 30 °F 35% 29.97 in 6 mi Calm Calm - -  
6:06 AM 42.8 °F 23.0 °F 46% 29.98 in 8.0 mi Calm Calm - N/A   Scattered Clouds
6:45 AM 41.0 °F 23.0 °F 49% 30.30 in 14.0 mi Calm Calm - N/A   Clear
7:43 AM 51.8 °F 23.0 °F 33% 30.33 in 14.0 mi Calm Calm - N/A   Clear
8:52 AM 59.0 °F 21.2 °F 23% 29.99 in 14.0 mi Calm Calm - N/A   Clear
9:00 AM 60 °F 31 °F 22% 30.07 in 16 mi SE 2.2 mph - -   Scattered Clouds
9:44 AM 62.6 °F 21.2 °F 20% 30.33 in 14.0 mi East 6.9 mph - N/A   Partly Cloudy
11:45 AM 74 °F 34 °F 14% 30.01 in 19 mi SE 2.2 mph - -   Scattered Clouds
12:40 PM 75.2 °F 21.2 °F 13% 30.25 in 14.0 mi ENE 4.6 mph - N/A   Scattered Clouds
1:40 PM 78.8 °F 21.2 °F 12% 30.19 in 14.0 mi SSW 8.1 mph - N/A   Mostly Cloudy
2:42 PM 80.6 °F 19.4 °F 10% 29.76 in 14.0 mi South 4.6 mph - N/A   Mostly Cloudy
2:45 PM 83 °F 32 °F 8% 29.79 in 25 mi SW 2.2 mph - -   Scattered Clouds
3:42 PM 82.4 °F 17.6 °F 9% 30.11 in 14.0 mi South 4.6 mph - N/A   Mostly Cloudy
4:40 PM 84.2 °F 15.8 °F 8% 30.08 in 14.0 mi South 18.4 mph - N/A   Scattered Clouds
5:43 PM 68.0 °F 12.2 °F 12% 29.86 in 14.0 mi SW 17.3 mph - N/A   Scattered Clouds
5:50 PM 78 °F 26 °F 7% 29.66 in 19 mi West 4.5 mph - -   Scattered Clouds
6:41 PM 77.0 °F 23.0 °F 13% 30.11 in 14.0 mi SSW 20.7 mph - N/A   Mostly Cloudy
7:40 PM 75.2 °F 26.6 °F 17% 30.15 in 10.0 mi SW 16.1 mph - N/A   Mostly Cloudy
8:40 PM 72 °F 38 °F 18% 29.68 in 9 mi West 4.5 mph - -   Mostly Cloudy
8:54 PM 71.6 °F 28.4 °F 20% 29.89 in 10.0 mi SW 16.1 mph - N/A   Mostly Cloudy
10:45 PM 69.8 °F 26.6 °F 20% 29.96 in 10.0 mi SW 16.1 mph - N/A   Mostly Cloudy
11:50 PM 68 °F 35 °F 19% 29.74 in 6 mi West 2.2 mph - -   Overcast